Regional Weather Roundup
Issued by NWS

Home | Current Version | Previous Version | Text Only | Print | Product List | Glossary On
Versions: 1 2 3 4 5 6 7 8 9 10 11 12 13 14 15 16 17 18 19 20 21 22 23 24 25 26 27 28 29 30 31 32 33 34 35 36 37 38 39 40 41 42 43 44 45 46 47 48 49 50
000
ASUS43 KMKX 311521
RWRWI

WISCONSIN REGIONAL WEATHER ROUNDUP
NATIONAL WEATHER SERVICE MILWAUKEE/SULLIVAN WI
1000 AM CDT TUE MAY 31 2016

NOTE: "FAIR" INDICATES FEW OR NO CLOUDS BELOW 12,000 FEET WITH NO
SIGNIFICANT WEATHER AND/OR OBSTRUCTIONS TO VISIBILITY.

WIZ001-002-006>008-014>016-023>028-311600-
NORTHWEST WISCONSIN

CITY           SKY/WX    TMP DP  RH WIND       PRES   REMARKS
SUPERIOR ARPT  CLOUDY    43  41  93 E17G26    29.98F
ASHLAND        CLOUDY    50  46  86 NE9       29.98F
HAYWARD        CLOUDY    63  54  72 S9        29.96R
SIREN          RAIN      63  59  88 SE7       29.89F
CUMBERLAND     LGT RAIN  59  57  94 SE10      29.93F
RICE LAKE      RAIN      61  58  90 SE8       29.95F
CHETEK         LGT RAIN  62  60  94 E3        29.95F
LADYSMITH      CLOUDY    68  56  64 SE12      29.98S
EAU CLAIRE     CLOUDY    70  59  68 SE10      29.92F
MENOMONIE      PTSUNNY   66  65  99 NE5       29.92F
NEW RICHMOND   DRIZZLE   63  63 100 SE8       29.90F
OSCEOLA        LGT RAIN  64  64 100 SE8       29.91F
$$

WIZ003>005-009-010-017-018-311600-
NORTH CENTRAL WISCONSIN

CITY           SKY/WX    TMP DP  RH WIND       PRES   REMARKS
MANITOWISH WTR NOT AVBL
ARBOR VITAE    CLOUDY    59  50  71 SE8G16    30.03S
WOODRUFF       CLOUDY    59  50  71 SE8G16    30.03S
RHINELANDER    CLOUDY    58  48  69 E12       30.04S
EAGLE RIVER      N/A     55  44  67 SE9       30.05S
LAND O LAKES   CLOUDY    54  44  69 SE8       30.07R
PHILLIPS       CLOUDY    61  52  73 E7        29.99S
TOMAHAWK       CLOUDY    59  50  72 SE7       30.03S
MEDFORD        CLOUDY    61  55  79 SE10      29.99F
MERRILL        CLOUDY    59  52  77 SE6       30.03F
$$

WIZ029-030-035-036-043>047-311600-
CENTRAL WISCONSIN

CITY           SKY/WX    TMP DP  RH WIND       PRES   REMARKS
WAUSAU         CLOUDY    63  51  65 SE12      30.00S
MOSINEE        SUNNY     63  54  72 E10       30.02S
MARSHFIELD     CLOUDY    68  56  65 SE17G24   29.98S
STEVENS POINT  MOSUNNY   62  53  71 E10       30.02S
WAUPACA        SUNNY     68  54  62 E10       30.03S
WAUTOMA        SUNNY    N/A N/A N/A E10       30.01S
WISC RAPIDS    MOSUNNY   71  55  56 E10       29.99F
CAMP DOUGLAS   CLOUDY    73  66  78 S7        29.96S
$$

WIZ011>013-019>022-031-037>040-048>050-311600-
NORTHEAST WISCONSIN

CITY           SKY/WX    TMP DP  RH WIND       PRES   REMARKS
ANTIGO         CLOUDY    58  49  72 E14       30.05S
SHAWANO        SUNNY     63  51  65 E9        30.07S
OCONTO         MOSUNNY   58  51  75 E7        30.07S
STURGEON BAY   NOT AVBL
GREEN BAY      MOSUNNY   63  52  67 E12       30.05F
MANITOWOC      PTSUNNY   57  50  77 N8        30.06S
APPLETON       PTSUNNY   61  48  63 NE12      30.03R
CLINTONVILLE   SUNNY     63  52  67 NE8       30.04F
OSHKOSH        SUNNY     64  55  72 E10       30.02S
$$

WIZ032>034-041-042-053>061-311600-
SOUTHWEST WISCONSIN

CITY           SKY/WX    TMP DP  RH WIND       PRES   REMARKS
LA CROSSE      CLOUDY    74  61  63 S15       29.93F
SPARTA         MOSUNNY   73  61  65 S12       29.95F
VIROQUA        CLOUDY    71  62  71 S12       29.96F
BOSCOBEL       NOT AVBL
PRAIRIE DU CHI CLOUDY    68  61  77 CALM      29.94F
PLATTEVILLE    MOSUNNY   71  64  79 E8        29.95F
$$

WIZ056-057-062-063-064-067-068-311600-
SOUTH CENTRAL WISCONSIN

CITY           SKY/WX    TMP DP  RH WIND       PRES   REMARKS
REEDSBURG      CLOUDY    74  57  56 S6        29.97S
BARABOO/DELLS  CLOUDY    76  51  41 S13       29.97S
LONE ROCK      CLOUDY    73  60  63 E7        29.96F
MINERAL POINT  CLOUDY    73  61  64 SE14      29.97F
MADISON        PTSUNNY   75  53  46 SE13      29.96F
MIDDLETON      MOSUNNY   77  51  40 SE13      29.98F
WATERTOWN      SUNNY     76  54  47 SE10G18   29.99F
MONROE         MOSUNNY   77  55  47 SE12      29.97F
JANESVILLE     MOSUNNY   79  48  34 SE12G17   29.97F
$$

WIZ051-052-058>065-066-070>072-311600-
SOUTHEAST WISCONSIN

CITY           SKY/WX    TMP DP  RH WIND       PRES   REMARKS
MILWAUKEE      MOSUNNY   62  55  77 NE6       30.03F
WAUKESHA       SUNNY     68  50  52 E13       30.03S
MILWAUKEE/TIMM NOT AVBL
RACINE         SUNNY     68  56  65 E10       30.04F
BURLINGTON     SUNNY     74  50  42 E10       30.00F
KENOSHA        SUNNY     72  54  53 E13       30.02F
FOND DU LAC    SUNNY     71  56  58 SE9       30.01F
SHEBOYGAN      SUNNY     59  53  80 E10       30.04F
WEST BEND      MOSUNNY   66  55  68 E9        30.03F
JUNEAU         SUNNY     73  57  57 E10       30.02S
$$

LSZ147-162-311600-
LAKE SUPERIOR

STATION/POSITION TIME  TEMP    WIND        PRES    WAVE
                       AIR SEA DIR/SP/G            HT/PER
                 (UTC) (F)     (DEG/KT/KT) (MB)    (FT/S)
W MID LAKE BUOY  1450   41 38   80/ 14/ 16 1018.5R   4/ 5
DEVILS ISLAND    1500   42      70/ 23/ 26 1017.4S
SAXON HARBOR     1400   59     110/  4/  5 1014.6
$$

LMZ867-665-643>646-311600-
LAKE MICHIGAN

STATION/POSITION TIME  TEMP    WIND        PRES    WAVE
                       AIR SEA DIR/SP/G            HT/PER
                 (UTC) (F)     (DEG/KT/KT) (MB)    (FT/S)
CHAMBERS ISLAND  1400   52      40/  9/ 14 1018.6F
N MID LAKE BUOY  1450   47 47   80/ 10/ 12 1018.8F   1/ 3
NORTHPORT PIER   1440   50      80/  9/ 12 1019.3F
SISTER BAY       1420   55     140/ 12/ 19   N/A
ALGOMA LAKESHORE 1417           40/ 15/ 19   N/A
KEWAUNEE LAKESHO 1400   48      20/  9/ 13 1017.5F
SHEBOYGAN LAKESH 1500   50     350/  9/  9 1017.9F
PORT WASHINGTON  1440   55      40/  9/ 11 1018.3S
S MID LAKE BUOY  1450   57 54   80/  8/  8 1016.3F   0
KENOSHA   LAKESH 1500   57      10/  6/  6 1016.6F
$$

TC  - TEMPERATURE IN CELSIUS
VSB - VISIBILITY IN STATUTE MILES
WCI - WIND CHILL INDEX
HX  - HEAT INDEX





USA.gov is the U.S. government's official web portal to all federal, state and local government web resources and services.